This is the latest recevied weather packets stored in our database for station/object PA5MB-15. If no packets are shown the sender has not sent any weather packets the latest 1 day(s).
| Time | Temp. | Humidity | Pressure | Rain* | Wind** | Luminosity | Snow |
|---|---|---|---|---|---|---|---|
| 1777986036 | 12.22° C | 87% | 1011.8 hPa | 0 mm | 1.34 m/s, 356° | 14 W/m² | - |
| 1777985733 | 12.22° C | 87% | 1011.9 hPa | 0 mm | 1.34 m/s, 0° | 13 W/m² | - |
| 1777985431 | 12.22° C | 87% | 1011.9 hPa | 0 mm | 0.89 m/s, 3° | 13 W/m² | - |
| 1777985126 | 12.22° C | 87% | 1011.9 hPa | 0 mm | 0.89 m/s, 356° | 16 W/m² | - |
| 1777984831 | 12.22° C | 87% | 1011.9 hPa | 0 mm | 1.34 m/s, 348° | 16 W/m² | - |
| 1777984523 | 12.22° C | 87% | 1011.9 hPa | 0 mm | 1.34 m/s, 350° | 17 W/m² | - |
| 1777984231 | 12.22° C | 87% | 1012 hPa | 0 mm | 1.34 m/s, 338° | 15 W/m² | - |
| 1777983931 | 12.22° C | 86% | 1012 hPa | 0 mm | 0.89 m/s, 338° | 15 W/m² | - |
| 1777983630 | 12.22° C | 86% | 1012 hPa | 0 mm | 1.34 m/s, 343° | 19 W/m² | - |
| 1777983331 | 12.22° C | 87% | 1012 hPa | 0 mm | 1.34 m/s, 347° | 22 W/m² | - |
| 1777983043 | 12.22° C | 87% | 1012 hPa | 0 mm | 0.89 m/s, 9° | 20 W/m² | - |
| 1777982730 | 12.22° C | 87% | 1012.1 hPa | 0 mm | 0.45 m/s, 254° | 18 W/m² | - |
| 1777982431 | 12.22° C | 87% | 1012.1 hPa | 0 mm | 1.34 m/s, 350° | 19 W/m² | - |
| 1777982124 | 12.22° C | 87% | 1012.1 hPa | 0 mm | 0.89 m/s, 354° | 22 W/m² | - |
| 1777981831 | 12.22° C | 87% | 1012.1 hPa | 0 mm | 0.89 m/s, 336° | 25 W/m² | - |
| 1777981531 | 12.22° C | 87% | 1012.1 hPa | 0 mm | 1.34 m/s, 345° | 25 W/m² | - |
| 1777981243 | 12.22° C | 87% | 1012.1 hPa | 0 mm | 1.34 m/s, 3° | 25 W/m² | - |
| 1777980931 | 12.22° C | 87% | 1012.1 hPa | 0 mm | 1.34 m/s, 354° | 26 W/m² | - |
| 1777980642 | 11.67° C | 88% | 1012.2 hPa | 0 mm | 1.34 m/s, 354° | 24 W/m² | - |
| 1777980331 | 11.67° C | 88% | 1012.2 hPa | 0 mm | 1.34 m/s, 338° | 20 W/m² | - |
| 1777980031 | 11.67° C | 88% | 1012.2 hPa | 0 mm | 1.34 m/s, 348° | 16 W/m² | - |
| 1777979732 | 11.67° C | 89% | 1012.3 hPa | 0 mm | 0.89 m/s, 7° | 15 W/m² | - |
| 1777979432 | 11.67° C | 88% | 1012.3 hPa | 0 mm | 1.79 m/s, 1° | 14 W/m² | - |
| 1777979143 | 11.67° C | 88% | 1012.3 hPa | 0 mm | 1.34 m/s, 343° | 15 W/m² | - |
| 1777978831 | 11.67° C | 88% | 1012.3 hPa | 0 mm | 1.79 m/s, 356° | 19 W/m² | - |
* Rain latest hour (hover to see other rain measurements)
** Current wind speed in m/s (hover to see current wind gust speed)